Reno, NV

2:19 PM PST on November 18, 2017 (GMT -0800)
Reno-Tahoe International

Weather History for KRNO - February, 2014

Change the Weather History Date:

Wednesday, February 26, 2014

  Actual Average Record
Temperature  
Mean Temperature 52 °F 42 °F  
Max Temperature 62 °F 54 °F 72 °F (1908)
Min Temperature 41 °F 31 °F -10 °F (1962)
Degree Days  
Heating Degree Days 13 23  
Month to date heating degree days 524 657  
Since 1 July heating degree days 3545 3594  
Cooling Degree Days 0 0  
Month to date cooling degree days 0 0  
Year to date cooling degree days 0 0  
Growing Degree Days 2 (Base 50)    
Moisture  
Dew Point 32 °F    
Average Humidity 51    
Maximum Humidity 76    
Minimum Humidity 25    
Precipitation  
Precipitation 0.05 in 0.04 in 0.49 in (1919)
Month to date precipitation 0.39 0.94  
Year to date precipitation 0.77 1.97  
Snow  
Snow 0.00 in 0.20 in 3.90 in (1919)
Month to date snowfall 1.1 4.6  
Since 1 July snowfall 6.2 18.6  
Snow Depth 0.00 in    
Sea Level Pressure  
Sea Level Pressure 29.80 in    
Wind  
Wind Speed 8 mph (SSW)    
Max Wind Speed 25 mph    
Max Gust Speed 29 mph    
Visibility 10 miles    
Events Rain    
T = Trace of Precipitation, MM = Missing Value Source: NWS Daily Summary

Daily Weather History Graph

Daily Weather History Graph

Search for Another Location

Airport or City:

Trip Planner

Search our weather history database for the weather conditions in past years. The results will help you decide how hot, cold, wet, or windy it might be!

Date:

Astronomy

Feb. 26, 2014 Rise Set
Actual Time 6:36 AM PST 5:48 PM PST
Civil Twilight 6:09 AM PST 6:15 PM PST
Nautical Twilight 5:38 AM PST 6:46 PM PST
Astronomical Twilight 5:06 AM PST 7:17 PM PST
Moon 4:25 AM PST (2/26) 3:09 PM PST (2/26)
Length of Visible Light 12h 06m
Length of Day
11h 12m
Waning Crescent, 9% of the Moon is Illuminated
Feb 26
Waning Crescent
Mar 1
New
Mar 8
First Quarter
Mar 16
Full
Mar 23
Last Quarter

Hourly Weather History & Observations

Time (PST) Temp. Windchill Dew Point Humidity Pressure Visibility Wind Dir Wind Speed Gust Speed Precip Events Conditions
12:55 AM 45.0 °F 43.5 °F 27.0 °F 49% 29.89 in 10.0 mi SW 3.5 mph - N/A   Scattered Clouds
1:55 AM 46.0 °F - 27.0 °F 47% 29.88 in 10.0 mi Calm Calm - N/A   Mostly Cloudy
2:55 AM 44.1 °F - 27.0 °F 51% 29.86 in 10.0 mi Calm Calm - N/A   Scattered Clouds
3:55 AM 43.0 °F - 28.0 °F 56% 29.87 in 10.0 mi Calm Calm - N/A   Mostly Cloudy
4:55 AM 42.1 °F - 28.0 °F 58% 29.88 in 10.0 mi Calm Calm - N/A   Mostly Cloudy
5:55 AM 43.0 °F 41.3 °F 28.0 °F 56% 29.89 in 10.0 mi NNE 3.5 mph - N/A   Mostly Cloudy
6:55 AM 41.0 °F 39.0 °F 28.9 °F 62% 29.88 in 10.0 mi SSE 3.5 mph - N/A   Mostly Cloudy
7:55 AM 45.0 °F 42.6 °F 28.9 °F 53% 29.89 in 10.0 mi SW 4.6 mph - N/A   Mostly Cloudy
8:55 AM 46.9 °F - 30.0 °F 52% 29.89 in 10.0 mi ESE 3.5 mph - N/A   Overcast
9:55 AM 50.0 °F - 28.9 °F 44% 29.87 in 10.0 mi Calm Calm - N/A   Overcast
10:55 AM 53.1 °F - 28.9 °F 40% 29.85 in 10.0 mi North 3.5 mph - N/A   Overcast
11:55 AM 60.1 °F - 27.0 °F 28% 29.80 in 10.0 mi Calm Calm - N/A   Overcast
12:55 PM 62.1 °F - 26.1 °F 25% 29.76 in 10.0 mi SSW 12.7 mph - N/A   Overcast
1:55 PM 61.0 °F - 27.0 °F 27% 29.76 in 10.0 mi SSW 16.1 mph - N/A   Overcast
2:55 PM 57.0 °F - 34.0 °F 42% 29.77 in 10.0 mi SSW 17.3 mph - N/A   Mostly Cloudy
3:55 PM 57.9 °F - 33.1 °F 39% 29.75 in 10.0 mi South 13.8 mph - N/A   Overcast
4:55 PM 57.0 °F - 33.1 °F 40% 29.75 in 10.0 mi South 15.0 mph - N/A   Overcast
5:55 PM 55.0 °F - 33.1 °F 43% 29.73 in 10.0 mi SSW 9.2 mph - N/A   Overcast
6:55 PM 54.0 °F - 33.1 °F 45% 29.71 in 10.0 mi South 12.7 mph - N/A   Overcast
7:55 PM 53.1 °F - 33.1 °F 47% 29.71 in 10.0 mi South 11.5 mph - N/A   Overcast
8:55 PM 48.9 °F - 37.9 °F 66% 29.73 in 10.0 mi WNW 18.4 mph 24.2 mph 0.00 in Rain Light Rain
9:55 PM 46.9 °F - 39.9 °F 77% 29.70 in 10.0 mi East 3.5 mph - 0.02 in   Mostly Cloudy
10:39 PM 48.0 °F - 39.9 °F 74% 29.77 in 7.0 mi South 18.4 mph 28.8 mph 0.02 in Rain Rain
10:55 PM 46.0 °F 39.6 °F 39.9 °F 79% 29.69 in 10.0 mi South 15.0 mph 28.8 mph 0.03 in   Overcast
11:55 PM 46.0 °F 38.0 °F 39.0 °F 76% 29.67 in 10.0 mi South 21.9 mph 27.6 mph 0.00 in Rain Light Rain